| time (UTC) | temp F | wind direction | speed knots | gust knots | rain 1hr in | rain 24hr in | rain mn in | humidity % | barometer mb |
| 20260507110518 | 62 | 68 | 1.7 | 5.2 | 0.00 | 0.00 | 0.00 | 39 | 1018.2 |
| 20260507105519 | 62 | 19 | 1.7 | 4.3 | 0.00 | 0.00 | 0.00 | 41 | 1018.2 |
| 20260507104520 | 62 | 248 | 1.7 | 1.7 | 0.00 | 0.00 | 0.00 | 42 | 1018.2 |
| 20260507103522 | 61 | 235 | 2.6 | 2.6 | 0.00 | 0.00 | 0.00 | 41 | 1018.2 |
| 20260507102521 | 61 | 3 | 1.7 | 3.5 | 0.00 | 0.00 | 0.00 | 45 | 1018.0 |
| 20260507101603 | 60 | 120 | 0.9 | 2.6 | 0.00 | 0.00 | 0.00 | 46 | 1017.8 |
| 20260507100525 | 60 | 77 | 1.7 | 5.2 | 0.00 | 0.00 | 0.00 | 47 | 1017.8 |
| 20260507095525 | 59 | 56 | 1.7 | 4.3 | 0.00 | 0.00 | 0.00 | 47 | 1017.7 |
| 20260507094544 | 59 | 339 | 1.7 | 2.6 | 0.00 | 0.00 | 0.00 | 47 | 1017.7 |
| 20260507093527 | 58 | 15 | 0.9 | 2.6 | 0.00 | 0.00 | 0.00 | 48 | 1017.7 |
| 20260507092516 | 57 | 119 | 1.7 | 3.5 | 0.00 | 0.00 | 0.00 | 49 | 1017.5 |
| 20260507091538 | 57 | 314 | 1.7 | 2.6 | 0.00 | 0.00 | 0.00 | 50 | 1017.5 |
| 20260507090540 | 57 | 305 | 1.7 | 2.6 | 0.00 | 0.00 | 0.00 | 52 | 1017.3 |
| 20260507085520 | 56 | 160 | 2.6 | 4.3 | 0.00 | 0.00 | 0.00 | 52 | 1017.2 |
| 20260507084523 | 56 | 78 | 1.7 | 5.2 | 0.00 | 0.00 | 0.00 | 53 | 1017.1 |
| 20260507083524 | 55 | 255 | 0.9 | 1.7 | 0.00 | 0.00 | 0.00 | 55 | 1017.0 |
| 20260507082526 | 55 | 203 | 1.7 | 3.5 | 0.00 | 0.00 | 0.00 | 56 | 1016.9 |
| 20260507081516 | 55 | 222 | 0.9 | 3.5 | 0.00 | 0.00 | 0.00 | 59 | 1016.7 |
| 20260507080517 | 54 | 38 | 0.9 | 3.5 | 0.00 | 0.00 | 0.00 | 59 | 1016.7 |
| 20260507075520 | 54 | 88 | 1.7 | 5.2 | 0.00 | 0.00 | 0.00 | 61 | 1016.8 |
| 20260507074521 | 53 | 104 | 1.7 | 4.3 | 0.00 | 0.00 | 0.00 | 62 | 1016.8 |
| 20260507073522 | 53 | 315 | 1.7 | 2.6 | 0.00 | 0.00 | 0.00 | 63 | 1016.8 |
| 20260507072544 | 52 | 112 | 0.9 | 3.5 | 0.00 | 0.00 | 0.00 | 65 | 1016.8 |
| 20260507071523 | 52 | 112 | 1.7 | 2.6 | 0.00 | 0.00 | 0.00 | 67 | 1016.9 |
| 20260507070521 | 51 | 116 | 1.7 | 2.6 | 0.00 | 0.00 | 0.00 | 69 | 1016.8 |
| 20260507065522 | 51 | 73 | 1.7 | 3.5 | 0.00 | 0.00 | 0.00 | 70 | 1016.7 |
| 20260507064524 | 50 | 77 | 1.7 | 3.5 | 0.00 | 0.00 | 0.00 | 72 | 1016.7 |
| 20260507063526 | 50 | 69 | 0.9 | 2.6 | 0.00 | 0.00 | 0.00 | 73 | 1016.6 |
| 20260507062521 | 49 | 67 | 1.7 | 1.7 | 0.00 | 0.00 | 0.00 | 75 | 1016.6 |
| 20260507061523 | 48 | 69 | 0.9 | 2.6 | 0.00 | 0.00 | 0.00 | 76 | 1016.5 |
| 20260507060523 | 47 | 56 | 0.9 | 1.7 | 0.00 | 0.00 | 0.00 | 76 | 1016.5 |
| 20260507055524 | 46 | 68 | 0.9 | 1.7 | 0.00 | 0.00 | 0.00 | 77 | 1016.5 |
| 20260507054526 | 46 | 69 | 0.0 | 0.9 | 0.00 | 0.00 | 0.00 | 77 | 1016.4 |
| 20260507053517 | 45 | 74 | 0.0 | 0.0 | 0.00 | 0.00 | 0.00 | 76 | 1016.3 |
| 20260507052517 | 44 | 325 | 0.0 | 1.7 | 0.00 | 0.00 | 0.00 | 76 | 1016.2 |
| 20260507051519 | 43 | 0.0 | 0.0 | 0.00 | 0.00 | 0.00 | 76 | 1016.0 | |
| 20260507050517 | 42 | 0.0 | 0.0 | 0.00 | 0.00 | 0.00 | 76 | 1016.0 | |
| 20260507045518 | 42 | 0.0 | 0.0 | 0.00 | 0.00 | 0.00 | 76 | 1016.0 | |
| 20260507044519 | 41 | 0.0 | 0.0 | 0.00 | 0.00 | 0.00 | 75 | 1016.0 | |
| 20260507043542 | 41 | 0.0 | 0.0 | 0.00 | 0.00 | 0.00 | 75 | 1016.0 | |
| 20260507042518 | 41 | 0.0 | 0.0 | 0.00 | 0.00 | 0.00 | 75 | 1015.9 | |
| 20260507041521 | 41 | 0.0 | 0.0 | 0.00 | 0.00 | 0.00 | 74 | 1015.8 | |
| 20260507040521 | 41 | 0.0 | 0.0 | 0.00 | 0.00 | 0.00 | 74 | 1015.7 | |
| 20260507035524 | 42 | 0.0 | 0.0 | 0.00 | 0.00 | 0.00 | 73 | 1015.6 | |
| 20260507034521 | 42 | 0.0 | 0.0 | 0.00 | 0.00 | 0.00 | 73 | 1015.7 | |
| 20260507033545 | 43 | 0.0 | 0.0 | 0.00 | 0.00 | 0.00 | 71 | 1015.8 | |
| 20260507032526 | 43 | 0.0 | 0.0 | 0.00 | 0.00 | 0.00 | 71 | 1015.7 | |
| 20260507031516 | 43 | 0.0 | 0.0 | 0.00 | 0.00 | 0.00 | 70 | 1015.6 | |
| 20260507030518 | 43 | 0.0 | 0.0 | 0.00 | 0.00 | 0.00 | 70 | 1015.6 | |
| 20260507025518 | 44 | 0.0 | 0.0 | 0.00 | 0.00 | 0.00 | 70 | 1015.6 | |
| 20260507024541 | 44 | 0.0 | 0.0 | 0.00 | 0.00 | 0.00 | 70 | 1015.5 | |
| 20260507023521 | 44 | 0.0 | 0.0 | 0.00 | 0.00 | 0.00 | 70 | 1015.5 | |
| 20260507022522 | 45 | 0.0 | 0.0 | 0.00 | 0.00 | 0.00 | 70 | 1015.3 | |
| 20260507021518 | 45 | 0.0 | 0.0 | 0.00 | 0.00 | 0.00 | 70 | 1015.2 | |
| 20260507020519 | 45 | 0.0 | 0.9 | 0.00 | 0.00 | 0.00 | 69 | 1015.3 | |
| 20260507015521 | 45 | 0.0 | 0.0 | 0.00 | 0.00 | 0.00 | 69 | 1015.3 | |
| 20260507014515 | 46 | 0.0 | 0.0 | 0.00 | 0.00 | 0.00 | 69 | 1015.3 | |
| 20260507013518 | 46 | 68 | 0.0 | 0.0 | 0.00 | 0.00 | 0.00 | 69 | 1015.3 |
| 20260507012521 | 46 | 80 | 0.0 | 0.9 | 0.00 | 0.00 | 0.00 | 69 | 1015.1 |
| 20260507011519 | 46 | 51 | 0.0 | 1.7 | 0.00 | 0.00 | 0.00 | 69 | 1015.0 |
| 20260507010521 | 46 | 110 | 0.0 | 1.7 | 0.00 | 0.00 | 0.00 | 68 | 1015.2 |
| 20260507005523 | 46 | 103 | 0.0 | 0.9 | 0.00 | 0.00 | 0.00 | 68 | 1015.3 |
| 20260507004523 | 47 | 47 | 0.0 | 1.7 | 0.00 | 0.00 | 0.00 | 68 | 1015.4 |
| 20260507003522 | 47 | 119 | 0.0 | 1.7 | 0.00 | 0.00 | 0.00 | 68 | 1015.5 |
| 20260507002522 | 47 | 95 | 0.9 | 2.6 | 0.00 | 0.00 | 0.00 | 67 | 1015.4 |
| 20260507001524 | 47 | 47 | 0.9 | 1.7 | 0.00 | 0.00 | 0.00 | 67 | 1015.3 |
| 20260507000524 | 47 | 55 | 0.9 | 1.7 | 0.00 | 0.00 | 0.00 | 67 | 1015.3 |
| 20260506235515 | 48 | 30 | 0.9 | 1.7 | 0.00 | 0.00 | 0.00 | 67 | 1015.3 |
| 20260506234517 | 48 | 106 | 0.9 | 3.5 | 0.00 | 0.00 | 0.00 | 67 | 1015.3 |
| 20260506233519 | 48 | 79 | 0.9 | 3.5 | 0.00 | 0.00 | 0.00 | 66 | 1015.3 |
| 20260506232519 | 48 | 63 | 0.9 | 2.6 | 0.00 | 0.00 | 0.00 | 66 | 1015.2 |
| 20260506231523 | 49 | 37 | 0.9 | 1.7 | 0.00 | 0.00 | 0.00 | 66 | 1015.2 |
| 20260506230525 | 49 | 81 | 0.9 | 2.6 | 0.00 | 0.00 | 0.00 | 65 | 1015.2 |
| 20260506225518 | 49 | 79 | 1.7 | 2.6 | 0.00 | 0.00 | 0.00 | 65 | 1015.3 |
| 20260506224532 | 49 | 76 | 0.9 | 1.7 | 0.00 | 0.00 | 0.00 | 65 | 1015.3 |
| 20260506223525 | 49 | 51 | 0.9 | 3.5 | 0.00 | 0.00 | 0.00 | 64 | 1015.3 |
| 20260506222523 | 50 | 56 | 0.9 | 2.6 | 0.00 | 0.00 | 0.00 | 64 | 1015.1 |
| 20260506221524 | 50 | 71 | 0.9 | 1.7 | 0.00 | 0.00 | 0.00 | 63 | 1015.0 |
| 20260506220525 | 50 | 92 | 0.9 | 2.6 | 0.00 | 0.00 | 0.00 | 63 | 1015.0 |
| 20260506215515 | 50 | 340 | 0.9 | 1.7 | 0.00 | 0.00 | 0.00 | 62 | 1015.0 |
| 20260506214522 | 51 | 42 | 0.9 | 1.7 | 0.00 | 0.00 | 0.00 | 62 | 1015.0 |
| 20260506213524 | 51 | 290 | 0.9 | 1.7 | 0.00 | 0.00 | 0.00 | 60 | 1014.9 |
| 20260506212545 | 51 | 15 | 0.0 | 0.9 | 0.00 | 0.00 | 0.00 | 59 | 1014.9 |
| 20260506211536 | 52 | 24 | 0.9 | 0.9 | 0.00 | 0.00 | 0.00 | 59 | 1014.8 |
| 20260506210538 | 52 | 121 | 0.9 | 1.7 | 0.00 | 0.00 | 0.00 | 59 | 1014.8 |
| 20260506205519 | 52 | 66 | 0.9 | 4.3 | 0.00 | 0.00 | 0.00 | 58 | 1014.8 |
| 20260506204521 | 53 | 79 | 0.9 | 2.6 | 0.00 | 0.00 | 0.00 | 57 | 1014.7 |
| 20260506203521 | 53 | 318 | 0.9 | 4.3 | 0.00 | 0.00 | 0.00 | 57 | 1014.6 |
| 20260506202519 | 54 | 249 | 0.9 | 2.6 | 0.00 | 0.00 | 0.00 | 56 | 1014.5 |
| 20260506201521 | 54 | 169 | 0.9 | 2.6 | 0.00 | 0.00 | 0.00 | 56 | 1014.4 |
| 20260506200523 | 55 | 61 | 1.7 | 3.5 | 0.00 | 0.00 | 0.00 | 55 | 1014.3 |
| 20260506195525 | 55 | 63 | 0.9 | 3.5 | 0.00 | 0.00 | 0.00 | 55 | 1014.2 |
| 20260506194527 | 54 | 13 | 2.6 | 2.6 | 0.00 | 0.00 | 0.00 | 55 | 1014.1 |
| 20260506193543 | 54 | 12 | 1.7 | 3.5 | 0.00 | 0.00 | 0.00 | 55 | 1014.0 |
| 20260506192522 | 54 | 131 | 2.6 | 2.6 | 0.00 | 0.00 | 0.00 | 54 | 1013.9 |
| 20260506191523 | 54 | 77 | 2.6 | 3.5 | 0.00 | 0.00 | 0.00 | 54 | 1013.8 |
| 20260506190524 | 54 | 85 | 2.6 | 3.5 | 0.00 | 0.00 | 0.00 | 54 | 1013.7 |
| 20260506185525 | 55 | 140 | 3.5 | 6.1 | 0.00 | 0.00 | 0.00 | 54 | 1013.7 |
| 20260506184515 | 55 | 118 | 2.6 | 4.3 | 0.00 | 0.00 | 0.00 | 53 | 1013.5 |
| 20260506183517 | 56 | 60 | 2.6 | 5.2 | 0.00 | 0.00 | 0.00 | 51 | 1013.3 |
| 20260506182518 | 56 | 118 | 3.5 | 5.2 | 0.00 | 0.00 | 0.00 | 50 | 1013.2 |
| 20260506181520 | 57 | 49 | 3.5 | 4.3 | 0.00 | 0.00 | 0.00 | 50 | 1013.0 |
| 20260506180521 | 57 | 72 | 4.3 | 8.7 | 0.00 | 0.00 | 0.00 | 50 | 1012.9 |
| 20260506175522 | 57 | 75 | 4.3 | 9.6 | 0.00 | 0.00 | 0.00 | 50 | 1012.8 |
| 20260506174546 | 57 | 92 | 3.5 | 5.2 | 0.00 | 0.00 | 0.00 | 51 | 1012.7 |
| 20260506173537 | 57 | 79 | 5.2 | 7.0 | 0.00 | 0.00 | 0.00 | 51 | 1012.5 |
| 20260506172538 | 56 | 57 | 2.6 | 8.7 | 0.00 | 0.00 | 0.00 | 50 | 1012.6 |
| 20260506171517 | 56 | 91 | 2.6 | 5.2 | 0.00 | 0.00 | 0.00 | 50 | 1012.7 |
| 20260506170520 | 56 | 109 | 3.5 | 7.0 | 0.00 | 0.00 | 0.00 | 49 | 1012.5 |
| 20260506165520 | 56 | 57 | 3.5 | 5.2 | 0.00 | 0.00 | 0.00 | 47 | 1012.5 |
| 20260506164521 | 57 | 85 | 2.6 | 6.1 | 0.00 | 0.00 | 0.00 | 45 | 1012.5 |
| 20260506163523 | 57 | 64 | 3.5 | 6.1 | 0.00 | 0.00 | 0.00 | 44 | 1012.6 |
| 20260506162546 | 57 | 98 | 2.6 | 6.1 | 0.00 | 0.00 | 0.00 | 43 | 1012.6 |
| 20260506161544 | 57 | 86 | 1.7 | 4.3 | 0.00 | 0.00 | 0.00 | 41 | 1012.5 |
| 20260506160523 | 57 | 108 | 2.6 | 6.1 | 0.00 | 0.00 | 0.00 | 40 | 1012.5 |
| 20260506155543 | 58 | 74 | 3.5 | 6.1 | 0.00 | 0.00 | 0.00 | 39 | 1012.5 |
| 20260506154524 | 58 | 59 | 2.6 | 4.3 | 0.00 | 0.00 | 0.00 | 39 | 1012.5 |
| 20260506153525 | 58 | 88 | 1.7 | 5.2 | 0.00 | 0.00 | 0.00 | 38 | 1012.6 |
| 20260506152525 | 59 | 143 | 3.5 | 4.3 | 0.00 | 0.00 | 0.00 | 41 | 1012.5 |
| 20260506151516 | 59 | 71 | 3.5 | 10.4 | 0.00 | 0.00 | 0.00 | 42 | 1012.3 |
| 20260506150517 | 60 | 72 | 2.6 | 4.3 | 0.00 | 0.00 | 0.00 | 46 | 1012.3 |
| 20260506145521 | 60 | 100 | 2.6 | 4.3 | 0.00 | 0.00 | 0.00 | 46 | 1012.3 |
| 20260506144522 | 60 | 61 | 3.5 | 6.1 | 0.00 | 0.00 | 0.00 | 42 | 1012.2 |
| 20260506143525 | 60 | 68 | 4.3 | 5.2 | 0.00 | 0.00 | 0.00 | 34 | 1012.2 |
| 20260506142516 | 61 | 68 | 5.2 | 8.7 | 0.00 | 0.00 | 0.00 | 33 | 1012.2 |
| 20260506141524 | 61 | 82 | 5.2 | 7.8 | 0.00 | 0.00 | 0.00 | 33 | 1012.2 |
| 20260506140515 | 61 | 96 | 5.2 | 11.3 | 0.00 | 0.00 | 0.00 | 32 | 1012.1 |
| 20260506135517 | 61 | 69 | 5.2 | 7.8 | 0.00 | 0.00 | 0.00 | 32 | 1012.1 |
| 20260506134541 | 62 | 73 | 5.2 | 8.7 | 0.00 | 0.00 | 0.00 | 32 | 1012.0 |
| 20260506133523 | 62 | 88 | 4.3 | 9.6 | 0.00 | 0.00 | 0.00 | 32 | 1011.9 |
| 20260506132525 | 61 | 96 | 5.2 | 7.0 | 0.00 | 0.00 | 0.00 | 32 | 1011.9 |
| 20260506131527 | 61 | 40 | 4.3 | 9.6 | 0.00 | 0.00 | 0.00 | 32 | 1012.0 |
| 20260506130516 | 61 | 112 | 5.2 | 7.0 | 0.00 | 0.00 | 0.00 | 32 | 1011.8 |
| 20260506125517 | 61 | 106 | 5.2 | 8.7 | 0.00 | 0.00 | 0.00 | 33 | 1011.7 |
| 20260506124518 | 61 | 76 | 5.2 | 12.2 | 0.00 | 0.00 | 0.00 | 33 | 1011.8 |
| 20260506123541 | 61 | 29 | 5.2 | 8.7 | 0.00 | 0.00 | 0.00 | 34 | 1011.9 |
| 20260506122521 | 62 | 90 | 5.2 | 9.6 | 0.00 | 0.00 | 0.00 | 33 | 1011.6 |
| 20260506121522 | 62 | 75 | 5.2 | 9.6 | 0.00 | 0.00 | 0.00 | 33 | 1011.4 |
| 20260506120523 | 61 | 126 | 5.2 | 11.3 | 0.00 | 0.00 | 0.00 | 34 | 1011.4 |
| 20260506115523 | 61 | 67 | 6.1 | 9.6 | 0.00 | 0.00 | 0.00 | 33 | 1011.5 |
| 20260506114523 | 60 | 79 | 5.2 | 10.4 | 0.00 | 0.00 | 0.00 | 33 | 1011.5 |
| 20260506113526 | 60 | 91 | 4.3 | 6.1 | 0.00 | 0.00 | 0.00 | 41 | 1011.5 |
| 20260506112536 | 60 | 72 | 4.3 | 7.0 | 0.00 | 0.00 | 0.00 | 42 | 1011.6 |
| 20260506111518 | 60 | 50 | 3.5 | 9.6 | 0.00 | 0.00 | 0.00 | 44 | 1011.7 |